This is the latest recevied weather packets stored in our database for station/object OK1KKY-18. If no packets are shown the sender has not sent any weather packets the latest 10 day(s).
| Time | Temp. | Humidity | Pressure | Rain* | Wind** | Luminosity | Snow |
|---|---|---|---|---|---|---|---|
| 1787673437 | 14.44° C | 82% | 1018 hPa | - | - | - | - |
| 1787672837 | 14.44° C | 81% | 1018 hPa | - | - | - | - |
| 1787672237 | 15° C | 82% | 1018.1 hPa | - | - | - | - |
| 1787671637 | 15° C | 80% | 1018 hPa | - | - | - | - |
| 1787671037 | 15° C | 79% | 1018 hPa | - | - | - | - |
| 1787670437 | 15° C | 79% | 1018 hPa | - | - | - | - |
| 1787669837 | 15° C | 79% | 1017.9 hPa | - | - | - | - |
| 1787669237 | 15° C | 79% | 1018 hPa | - | - | - | - |
| 1787668637 | 15° C | 80% | 1018 hPa | - | - | - | - |
| 1787668037 | 15° C | 82% | 1017.7 hPa | - | - | - | - |
| 1787667437 | 15° C | 83% | 1017.8 hPa | - | - | - | - |
| 1787666837 | 15° C | 84% | 1017.7 hPa | - | - | - | - |
| 1787666236 | 15° C | 86% | 1017.7 hPa | - | - | - | - |
| 1787665637 | 14.44° C | 91% | 1017.6 hPa | - | - | - | - |
| 1787665037 | 14.44° C | 86% | 1017.5 hPa | - | - | - | - |
| 1787664437 | 15° C | 86% | 1017.6 hPa | - | - | - | - |
| 1787663237 | 15° C | 82% | 1017.3 hPa | - | - | - | - |
| 1787662637 | 15° C | 79% | 1017.2 hPa | - | - | - | - |
| 1787662037 | 15.56° C | 76% | 1017 hPa | - | - | - | - |
| 1787661438 | 15.56° C | 73% | 1016.9 hPa | - | - | - | - |
| 1787660837 | 15.56° C | 72% | 1016.8 hPa | - | - | - | - |
| 1787660237 | 16.11° C | 63% | 1016.7 hPa | - | - | - | - |
| 1787659637 | 16.11° C | 59% | 1016.8 hPa | - | - | - | - |
| 1787659037 | 16.11° C | 63% | 1016.9 hPa | - | - | - | - |
| 1787658437 | 16.11° C | 68% | 1016.8 hPa | - | - | - | - |
* Rain since midnight (hover to see other rain measurements)
** Current wind speed in m/s (hover to see current wind gust speed)